Regional Weather Roundup
Issued by NWS

Home | Current Version | Previous Version | Text Only | Print | Product List | Glossary Off
Versions: 1 2 3 4 5 6 7 8 9 10 11 12 13 14 15 16 17 18 19 20 21 22 23 24 25 26 27 28 29 30 31 32 33 34 35 36 37 38 39 40 41 42 43 44 45 46 47 48 49 50

000
ASUS43 KLSX 251907
RWRMO

WEATHER SUMMARY FOR MISSOURI
NATIONAL WEATHER SERVICE SPRINGFIELD MO
100 PM CST THU DEC 25 2014

NOTE: "FAIR" INDICATES FEW OR NO CLOUDS BELOW 12,000 FEET WITH NO
       SIGNIFICANT WEATHER AND/OR OBSTRUCTIONS TO VISIBILITY.
       CURRENT SKY AND/OR WEATHER CONDITIONS ARE NOT AVAILABLE FOR
       CHILLICOTHE AND FARMINGTON.

MOZ001>031-035>038-043-044-053-054-252000-
...NORTHERN AND WESTERN MISSOURI...

CITY           SKY/WX    TMP DP  RH WIND       PRES   REMARKS
KANSAS CTY INT PTSUNNY   50  29  44 S26G35    29.70F
KANSAS C DTWN  SUNNY     53  28  38 S17G32    29.73F
LEE`S SUMMIT   SUNNY     51  30  44 S17G31    29.75F
ST JOSEPH      SUNNY     52  32  46 S18       29.68F
CHILLICOTHE      N/A     50  31  48 S15G31    29.80F
KIRKSVILLE     SUNNY     49  31  49 SW20      29.84F

$$
MOZ066>068-077>081-088>096-101>105-252000-
...SOUTHWEST MISSOURI...

CITY           SKY/WX    TMP DP  RH WIND       PRES   REMARKS
SPRINGFIELD    SUNNY     51  28  41 S22G29    29.89F
JOPLIN         MOSUNNY   53  27  36 S25G37    29.83F

$$
MOZ032>034-039>042-045>050-055>058-069>072-252000-
...CENTRAL MISSOURI...

CITY           SKY/WX    TMP DP  RH WIND       PRES   REMARKS
COLUMBIA       SUNNY     50  32  50 S16       29.89F
JEFFERSON CITY SUNNY     51  30  44 S14       29.91F
ROLLA          SUNNY     49  30  48 S15       29.92F
SEDALIA        SUNNY     52  28  39 S20G26    29.85F
WHITEMAN AFB   SUNNY     52  30  43 S17G29    29.81F
WARRENSBURG    SUNNY     52  28  40 S15G28    29.81F
OSAGE BEACH    SUNNY     52  28  40 S16G23    29.91F

$$
MOZ051-052-059>065-252000-
...EAST CENTRAL MISSOURI...

CITY           SKY/WX    TMP DP  RH WIND       PRES   REMARKS
ST LOUIS INTL  MOSUNNY   51  31  46 S13G20    29.98F
SPIRIT OF STL  SUNNY     51  31  46 S13G25    29.96F
ST CHARLES     MOSUNNY   50  34  54 S16       29.96F

$$
MOZ072>076-082>087-097>100-106>115-252000-
...SOUTH CENTRAL AND SOUTHEAST MISSOURI...

CITY           SKY/WX    TMP DP  RH WIND       PRES   REMARKS
CAPE GIRARDEAU MOSUNNY   47  39  74 S16       30.10F
FARMINGTON     SUNNY     48  34  57 SE16      30.02F
POPLAR BLUFF   SUNNY     49  34  56 S15       30.08F
WEST PLAINS    SUNNY     48  31  51 S18G24    30.00F

$$


USA.gov is the U.S. government's official web portal to all federal, state and local government web resources and services.